Location: D�rnast
(49.6426°N, 11.9755°E)
Time: 20:05:06
(UTC+00:00)

H-2A R/B - Pass Details

Date: 24 January 2021
Orbit: 529 x 651 km, 98.3° (Epoch: 02 March)

Event Time Altitude Azimuth Distance (km) Brightness Sun altitude
Rises 17:03:37 0° 187° (S) 2,758 6.2 -11.1°
Reaches altitude 10° 17:05:51 10° 196° (SSW) 1,886 5.5 -11.5°
Maximum altitude 17:09:37 35° 263° (W) 964 4.3 -12.1°
Drops below altitude 10° 17:13:33 10° 330° (NNW) 1,971 5.3 -12.7°
Sets 17:15:56 0° 339° (NNW) 2,902 6.1 -13.1°
